[[{"header":{"parameterUnit":"m.s-1","parameterCategory":1,"la1":30.2991,"la2":30.254,"lo1":-89.0895,"lo2":-89.0444,"dy":0.0017,"dx":0.0017,"nx":28,"ny":28,"refTime":"2025-09-16T21:00:00:Z","depth":0,"parameterNumber":2,"parameterNumberName":"U-component_of_WINDS"},"data":[0,0,0,0,0,0,0,0,0,0,0,0,0,0,0,0,0,0,0,0,0,0,0,0,0,0,0,0,0,0,0,0,0,0,0,0,0,0,0,0,0,0,0,0,0,0,0,0,0,0,0,0,0,0,0,0,0,0,0.3892,0.3892,0,0.3883,0.3883,0.3883,0.3866,0.3865,0.3865,0.3865,0.3856,0.3856,0.3856,0,0,0,0,0,0,0,0,0,0,0,0,0,0.3893,0.3893,0.3892,0.3892,0.3892,0.3883,0.3883,0.3883,0.3866,0.3865,0.3865,0.3865,0.3856,0.3856,0.3856,0,0,0,0,0,0,0,0,0,0,0,0,0,0.389,0.3893,0.3892,0.3882,0.3881,0.3883,0.3883,0.3883,0.3866,0.3865,0.3865,0.3864,0.3856,0.3856,0.3856,0.3868,0,0,0.3857,0.3857,0,0,0,0,0,0,0,0,0.389,0.389,0.3884,0.3883,0.3882,0.3875,0.3881,0.3878,0.3866,0.3872,0.3865,0.3864,0.3863,0.3862,0.3862,0.3867,0.3867,0.3857,0.3857,0.3857,0.3857,0,0,0,0,0,0,0,0.389,0.389,0.3889,0.3884,0.3882,0.3878,0.3877,0.388,0.387,0.3871,0.387,0.3869,0.3862,0.3862,0.3862,0.3867,0.3857,0.3857,0.3857,0.3857,0.388,0.388,0,0,0,0,0,0,0.3892,0.389,0.3889,0.3888,0.3885,0.3879,0.3877,0.3878,0.387,0.3869,0.387,0.3868,0.3862,0.3861,0.3861,0.3873,0.3857,0.3857,0.3857,0.3879,0.388,0.3881,0,0,0,0,0,0,0.3892,0.3892,0.3889,0.3889,0.3888,0.3879,0.388,0.3878,0.3877,0.3869,0.3867,0.3871,0.3861,0.3861,0.3866,0.3873,0.3857,0.3857,0.3879,0.388,0.388,0.3898,0,0,0,0,0,0,0.3892,0.3892,0.3896,0.3889,0.3888,0.3894,0.388,0.3878,0.3878,0.3876,0.387,0.3868,0.3861,0.3866,0.3866,0.3873,0.3857,0.3878,0.3879,0.388,0.3896,0.3899,0.3901,0,0,0,0,0,0.3892,0.3901,0.3896,0.3896,0.3893,0.3894,0.3894,0.3885,0.3878,0.3882,0.3877,0.3868,0.3872,0.3866,0.3867,0.3873,0.3878,0.3879,0.388,0.3895,0.3898,0.3901,0,0,0,0,0,0,0.3909,0.39,0.3895,0.3902,0.3899,0.3892,0.3896,0.3889,0.3888,0.3887,0.3876,0.3875,0.3881,0.3878,0.3872,0.3883,0.3874,0.3875,0.3885,0.3888,0.389,0.389,0.3857,0,0,0,0,0,0.3914,0.3916,0.3908,0.3915,0.3914,0.3906,0.3906,0.3899,0.3896,0.3895,0.389,0.3887,0.3887,0.3887,0.3887,0.3896,0.3894,0.3901,0.3903,0.3905,0.3906,0.391,0.3912,0.3885,0.3884,0.3884,0,0,0.3924,0.3919,0.3921,0.3918,0.3915,0.3917,0.3905,0.3907,0.3908,0.3895,0.3899,0.3895,0.3891,0.3898,0.3901,0.3896,0.3913,0.3907,0.3908,0.3908,0.3911,0.3914,0.3916,0.3885,0.3885,0.3885,0,0,0.3942,0.3939,0.3944,0.3942,0.3937,0.3932,0.3933,0.3927,0.3923,0.3927,0.3917,0.3919,0.392,0.3917,0.3916,0.3934,0.3925,0.3934,0.3946,0.3949,0.3952,0.3953,0.3959,0.3961,0.3935,0.3935,0.3935,0,0.3955,0.3957,0.3948,0.3951,0.395,0.3938,0.3944,0.3942,0.3937,0.3937,0.3931,0.3932,0.3929,0.3934,0.3939,0.3938,0.3939,0.3934,0.3952,0.3954,0.3955,0.396,0.3963,0.3936,0.3936,0.3936,0.3936,0,0.3972,0.3974,0.3979,0.3975,0.3975,0.3979,0.3971,0.3971,0.3965,0.396,0.3964,0.396,0.3958,0.3959,0.3954,0.3964,0.3961,0.3954,0.3944,0.3959,0.3964,0.3966,0.3937,0.3937,0.3937,0.3937,0,0,0.4,0.3992,0.3993,0.3991,0.3986,0.3987,0.3991,0.3989,0.399,0.3988,0.399,0.3991,0.3985,0.3983,0.3977,0.3981,0.3994,0.3973,0.3973,0.3976,0.4004,0.4009,0.4011,0.3989,0.3989,0.399,0.4004,0,0.4017,0.4022,0.4014,0.4021,0.4023,0.4012,0.4015,0.4012,0.4007,0.4008,0.4003,0.4003,0.3995,0.3994,0.3997,0.3992,0.3999,0.3991,0.3991,0.3991,0.3991,0.4014,0.4019,0.4033,0.4006,0.4007,0.4007,0,0.4036,0.4034,0.4042,0.4035,0.4036,0.4039,0.4037,0.4037,0.4034,0.403,0.4029,0.4021,0.4024,0.4015,0.4019,0.4013,0.4013,0.401,0.4011,0.4009,0.3999,0.4012,0.4037,0.4039,0.401,0.4009,0.4009,0,0.4055,0.4055,0.4059,0.4058,0.4051,0.4053,0.405,0.4046,0.4045,0.4044,0.4043,0.4042,0.4041,0.404,0.4033,0.4027,0.4037,0.4027,0.4034,0.4034,0.4036,0.4035,0.406,0.4037,0.4037,0.4037,0.4037,0,0.4073,0.4078,0.4067,0.4069,0.4074,0.4066,0.4071,0.4067,0.4063,0.4065,0.4055,0.4057,0.4047,0.4048,0.4042,0.4046,0.4045,0.4042,0.4041,0.4043,0.4043,0.4041,0.404,0.4038,0.4037,0.4037,0.4037,0,0.4094,0.4087,0.4091,0.4084,0.4083,0.4086,0.4081,0.4083,0.4078,0.4079,0.4079,0.4072,0.4072,0.4064,0.4063,0.4059,0.4065,0.4062,0.4066,0.4064,0.4071,0.407,0.4094,0.4097,0.4074,0.4074,0.4074,0,0.4106,0.4109,0.4103,0.4103,0.4101,0.4101,0.4101,0.4092,0.4092,0.4088,0.4091,0.409,0.4089,0.4089,0.4083,0.4082,0.4079,0.4087,0.4078,0.408,0.4078,0.4077,0.4077,0.4089,0.4089,0.4089,0.4089,0,0.4127,0.4123,0.4123,0.4121,0.4121,0.4119,0.4117,0.4118,0.4109,0.4109,0.4109,0.4108,0.4107,0.4106,0.4104,0.4101,0.4093,0.4093,0.4094,0.4095,0.4097,0.4095,0.407,0.4092,0.4091,0.4091,0.4091,0.4091,0.4143,0.4145,0.4141,0.4141,0.4138,0.4136,0.4138,0.4133,0.4133,0.4131,0.4126,0.4127,0.4123,0.4119,0.4117,0.4117,0.4112,0.4114,0.4115,0.4115,0.4116,0.4098,0.4116,0.4116,0.4116,0.4116,0.4116,0,0.4163,0.416,0.416,0.4157,0.4156,0.415,0.4147,0.4147,0.4148,0.4145,0.4144,0.4144,0.4143,0.4137,0.4136,0.4137,0.4134,0.4137,0.4136,0.4136,0.412,0.4119,0.414,0.414,0.414,0.414,0.414,0.414,0.4173,0.4176,0.4172,0.4174,0.4171,0.4171,0.417,0.4168,0.4166,0.4166,0.4165,0.4161,0.4157,0.4155,0.4154,0.4153,0.4152,0.4156,0.4153,0.4139,0.4137,0.4135,0.4133,0.4156,0.4156,0.4168,0.4168,0.4169]},{"header":{"parameterUnit":"m.s-1","parameterCategory":1,"la1":30.2991,"la2":30.254,"lo1":-89.0895,"lo2":-89.0444,"dy":0.0017,"dx":0.0017,"nx":28,"ny":28,"refTime":"2025-09-16T21:00:00:Z","depth":0,"parameterNumber":3,"parameterNumberName":"V-component_of_WINDS"},"data":[0,0,0,0,0,0,0,0,0,0,0,0,0,0,0,0,0,0,0,0,0,0,0,0,0,0,0,0,0,0,0,0,0,0,0,0,0,0,0,0,0,0,0,0,0,0,0,0,0,0,0,0,0,0,0,0,0,0,-2.3319,-2.3319,0,-2.3361,-2.3362,-2.3362,-2.3354,-2.3353,-2.3352,-2.3352,-2.3392,-2.3394,-2.3396,0,0,0,0,0,0,0,0,0,0,0,0,0,-2.3229,-2.323,-2.3319,-2.3319,-2.332,-2.3361,-2.3362,-2.3362,-2.3354,-2.3353,-2.3352,-2.3351,-2.3392,-2.3394,-2.3396,0,0,0,0,0,0,0,0,0,0,0,0,0,-2.3269,-2.3231,-2.3319,-2.3321,-2.3322,-2.3361,-2.3362,-2.3362,-2.3354,-2.3353,-2.3352,-2.3351,-2.3391,-2.3394,-2.3396,-2.3435,0,0,-2.3404,-2.3406,0,0,0,0,0,0,0,0,-2.3267,-2.3272,-2.332,-2.3321,-2.3322,-2.3351,-2.3345,-2.3387,-2.3355,-2.3342,-2.3352,-2.335,-2.3379,-2.3383,-2.3393,-2.3437,-2.3439,-2.3405,-2.3406,-2.3407,-2.3408,0,0,0,0,0,0,0,-2.3264,-2.327,-2.3335,-2.3321,-2.3322,-2.3319,-2.3323,-2.3353,-2.3366,-2.3343,-2.3342,-2.3348,-2.338,-2.3391,-2.3394,-2.3439,-2.3405,-2.3407,-2.3409,-2.341,-2.3516,-2.3517,0,0,0,0,0,0,-2.3261,-2.3268,-2.3334,-2.3337,-2.3291,-2.3321,-2.3326,-2.3343,-2.3366,-2.3368,-2.3348,-2.3347,-2.3387,-2.3391,-2.3395,-2.3441,-2.3407,-2.341,-2.3411,-2.3515,-2.3516,-2.3518,0,0,0,0,0,0,-2.3259,-2.3267,-2.3332,-2.3302,-2.3311,-2.3324,-2.3343,-2.3344,-2.3355,-2.337,-2.3372,-2.3357,-2.3386,-2.3392,-2.3425,-2.3443,-2.3411,-2.3414,-2.3513,-2.3515,-2.3517,-2.3534,0,0,0,0,0,0,-2.3256,-2.3266,-2.3282,-2.3303,-2.3312,-2.3362,-2.3344,-2.3346,-2.336,-2.3359,-2.3379,-2.3382,-2.3385,-2.3421,-2.3428,-2.3446,-2.3416,-2.3512,-2.3514,-2.3516,-2.3532,-2.3537,-2.354,0,0,0,0,0,-2.3253,-2.3285,-2.3283,-2.3291,-2.3332,-2.3364,-2.3369,-2.3373,-2.3362,-2.3377,-2.3386,-2.3381,-2.344,-2.3425,-2.3432,-2.3451,-2.3511,-2.3514,-2.3516,-2.3531,-2.3536,-2.354,0,0,0,0,0,0,-2.3265,-2.3288,-2.3285,-2.3325,-2.3343,-2.3362,-2.3381,-2.3379,-2.3399,-2.3397,-2.3401,-2.3406,-2.344,-2.3449,-2.3432,-2.3489,-2.3474,-2.3478,-2.3482,-2.3487,-2.3491,-2.3487,-2.3418,0,0,0,0,0,-2.3272,-2.3297,-2.3315,-2.3348,-2.3357,-2.3368,-2.3382,-2.3384,-2.3401,-2.3409,-2.3421,-2.3437,-2.346,-2.3474,-2.3496,-2.3534,-2.3538,-2.3551,-2.3555,-2.3558,-2.3561,-2.3581,-2.3586,-2.3527,-2.3527,-2.3527,0,0,-2.3287,-2.3303,-2.3318,-2.3351,-2.3364,-2.3388,-2.3374,-2.34,-2.3418,-2.3412,-2.3444,-2.3454,-2.3473,-2.3509,-2.3525,-2.3518,-2.3579,-2.3561,-2.3564,-2.3565,-2.3584,-2.359,-2.3595,-2.3529,-2.3528,-2.3528,0,0,-2.3327,-2.3342,-2.337,-2.3384,-2.3405,-2.3412,-2.3419,-2.3439,-2.3445,-2.3478,-2.3474,-2.3495,-2.3533,-2.3547,-2.3558,-2.3603,-2.3598,-2.3609,-2.363,-2.3649,-2.3654,-2.3658,-2.3672,-2.3677,-2.3613,-2.3613,-2.3613,0,-2.3342,-2.3379,-2.3385,-2.3411,-2.3425,-2.3422,-2.3451,-2.3464,-2.3491,-2.35,-2.3491,-2.3539,-2.3552,-2.359,-2.3601,-2.3611,-2.3618,-2.3606,-2.3653,-2.3657,-2.3661,-2.3674,-2.368,-2.3614,-2.3614,-2.3614,-2.3614,0,-2.3397,-2.3422,-2.3443,-2.3469,-2.3486,-2.3513,-2.3522,-2.3537,-2.3538,-2.3546,-2.3578,-2.3593,-2.3617,-2.3627,-2.3627,-2.3665,-2.3659,-2.3652,-2.3636,-2.3668,-2.368,-2.3686,-2.3616,-2.3615,-2.3615,-2.3615,0,0,-2.3444,-2.3473,-2.348,-2.3492,-2.3515,-2.3534,-2.3561,-2.3585,-2.3598,-2.3616,-2.3638,-2.3671,-2.3664,-2.3677,-2.3679,-2.3696,-2.3728,-2.3687,-2.3687,-2.3692,-2.3769,-2.3773,-2.3779,-2.3726,-2.3727,-2.3728,-2.3767,0,-2.3484,-2.3532,-2.3538,-2.358,-2.3603,-2.36,-2.3623,-2.3639,-2.3647,-2.3667,-2.3675,-2.3697,-2.3687,-2.3695,-2.3712,-2.3721,-2.3744,-2.3718,-2.3744,-2.3745,-2.3738,-2.3786,-2.3791,-2.3827,-2.3772,-2.3773,-2.3773,0,-2.3538,-2.3558,-2.3603,-2.3622,-2.3631,-2.3652,-2.3674,-2.3694,-2.3711,-2.3716,-2.3731,-2.373,-2.3757,-2.3741,-2.3776,-2.3759,-2.377,-2.3776,-2.3777,-2.3779,-2.376,-2.3787,-2.3839,-2.3844,-2.3782,-2.3781,-2.378,0,-2.3566,-2.3604,-2.3636,-2.3646,-2.3669,-2.3684,-2.3694,-2.3711,-2.3724,-2.3743,-2.3752,-2.3774,-2.3785,-2.3802,-2.3807,-2.3795,-2.3842,-2.3826,-2.3845,-2.3845,-2.3854,-2.3853,-2.3906,-2.3863,-2.3863,-2.3863,-2.3863,0,-2.3609,-2.3636,-2.3648,-2.3668,-2.3697,-2.3703,-2.3732,-2.3742,-2.3756,-2.3776,-2.3776,-2.3794,-2.3801,-2.382,-2.3825,-2.3853,-2.3858,-2.3862,-2.3862,-2.3861,-2.386,-2.3867,-2.3864,-2.3865,-2.3864,-2.3864,-2.3864,0,-2.3645,-2.3655,-2.3688,-2.3708,-2.3713,-2.3734,-2.375,-2.3768,-2.3776,-2.3801,-2.3807,-2.3819,-2.3842,-2.3849,-2.3877,-2.388,-2.3912,-2.3911,-2.3906,-2.3905,-2.3923,-2.392,-2.3981,-2.3989,-2.3942,-2.3943,-2.3943,0,-2.3672,-2.3692,-2.3714,-2.3728,-2.3739,-2.3761,-2.3775,-2.3781,-2.3796,-2.3817,-2.3832,-2.3855,-2.3874,-2.391,-2.392,-2.3941,-2.394,-2.3959,-2.3943,-2.394,-2.3938,-2.3936,-2.3938,-2.3962,-2.3963,-2.3963,-2.3963,0,-2.3717,-2.3721,-2.3742,-2.3764,-2.3781,-2.3799,-2.3816,-2.3827,-2.3835,-2.3852,-2.3875,-2.389,-2.3918,-2.394,-2.3961,-2.397,-2.3968,-2.3969,-2.3974,-2.3972,-2.3968,-2.3969,-2.3913,-2.3967,-2.3967,-2.3966,-2.3966,-2.3966,-2.3748,-2.3766,-2.3784,-2.3807,-2.382,-2.3836,-2.3854,-2.3864,-2.3884,-2.3907,-2.391,-2.3935,-2.3951,-2.3979,-2.399,-2.4009,-2.4003,-2.4011,-2.4012,-2.4014,-2.4015,-2.3966,-2.4013,-2.4013,-2.4013,-2.4013,-2.4013,0,-2.3792,-2.3804,-2.3825,-2.3849,-2.3866,-2.3864,-2.3882,-2.3897,-2.3919,-2.3935,-2.3953,-2.398,-2.4001,-2.4013,-2.4034,-2.4047,-2.4046,-2.4052,-2.4051,-2.4053,-2.4019,-2.4012,-2.4052,-2.4052,-2.4052,-2.4052,-2.4052,-2.4052,-2.3817,-2.3847,-2.3852,-2.3888,-2.3899,-2.3924,-2.3935,-2.3949,-2.3962,-2.3991,-2.4009,-2.4017,-2.4031,-2.4053,-2.4072,-2.4075,-2.4082,-2.4089,-2.4091,-2.4059,-2.4055,-2.4051,-2.4044,-2.4091,-2.4091,-2.4122,-2.4123,-2.4123]}]]